Location: Newark
(22.3060°N, 114.2134°E)
Time: 08:18:59
(UTC+00:00)

Tiros 1 despin weight - Pass Details

Date: 03 August 2021
Orbit: 593 x 641 km, 48.2° (Epoch: 27 September)

Event Time Altitude Azimuth Distance (km) Brightness Sun altitude
Rises 13:30:37 0° 291° (WNW) 2,910 ? -31.0°
Reaches altitude 10° 13:33:50 10° 268° (W) 1,991 ? -31.6°
Enters shadow 13:35:23 14° 249° (WSW) 1,738 ? -31.8°
